Location: *
(90.0000°N, 180.0000°W)
Time: 13:03:17
(UTC+00:00)

Daily predictions for brighter satellites

Satellite Brightness Start Highest point End
(mag) Time Altitude Azimuth Time Altitude Azimuth Time Altitude Azimuth
GP-B 3.0 12:04:43 74° SE 12:05:07 88° ENE 12:09:37 10° NNW
Cosmos 405 Rocket 4.4 12:05:02 10° NNW 12:08:24 25° WNW 12:08:51 24° W
CZ-4B R/B 4.5 12:04:04 10° NNE 12:08:25 31° E 12:09:12 29° ESE
ADEOS Rocket 3.8 12:03:43 10° NE 12:10:02 43° SE 12:11:36 38° SSE
ALOS 2 3.8 12:12:11 30° W 12:12:30 31° W 12:16:27 10° NNW
SL-16 R/B 3.1 12:13:17 37° SW 12:13:46 37° WSW 12:19:33 10° WNW
MOS 1 Rocket 4.2 12:10:29 10° NE 12:14:34 34° ESE 12:14:40 34° ESE
Helios 1A 4.4 12:14:07 26° W 12:15:02 28° WNW 12:18:40 10° N
ARGOS 4.5 12:12:17 14° WSW 12:16:28 35° NW 12:21:24 10° NNE
Cosmos 2154 Rocket 4.2 12:11:17 10° WNW 12:17:14 46° SSW 12:17:28 46° SSW
Meteor 1-4 Rocket 4.5 12:17:15 20° E 12:17:17 20° E 12:19:58 10° NNE
Cosmos 1300 4.2 12:14:41 10° NNW 12:17:57 27° WNW 12:17:57 27° WNW
Helios 1B rocket 3.9 12:14:32 10° ENE 12:17:12 25° E 12:17:12 25° E
Resurs 01 Rocket 3.3 12:16:07 14° W 12:19:21 30° NW 12:23:17 10° NNE
Cosmos 2366 rocket 4.2 12:14:22 10° W 12:19:41 45° SSW 12:19:41 45° SSW
Cosmos 1821 Rocket 4.3 12:15:45 10° WSW 12:22:44 43° SSE 12:27:50 10° ESE
Okean O Rocket 3.5 12:19:35 10° NW 12:23:29 30° NNE 12:27:21 10° E
Cosmos 1238 Rocket 4.2 12:23:31 39° SE 12:24:19 41° ESE 12:29:00 10° NE
CZ-2C R/B 4.2 12:22:31 23° W 12:24:40 33° NW 12:29:09 10° N
Cosmos 2173 Rocket 4.2 12:25:18 46° SSE 12:25:29 46° SSE 12:31:25 10° E
Cosmos 1151 Rocket 4.2 12:23:18 10° NW 12:26:35 31° W 12:26:35 31° W
Resurs 1-4 Rocket 3.3 12:23:13 10° N 12:28:04 35° ENE 12:30:33 23° ESE
SL-24 R/B 4.2 12:23:59 10° NE 12:28:54 72° SE 12:29:25 65° S
ERS-2 4.0 12:28:16 22° WNW 12:28:54 23° WNW 12:31:57 10° N
SPOT 5 4.1 12:28:04 23° W 12:29:37 29° NW 12:33:27 10° N
Mayak 0.0 12:27:42 10° NE 12:31:06 30° ESE 12:31:06 30° ESE
USA 32 4.4 12:26:27 10° NNW 12:31:34 51° W 12:32:31 45° WSW
Cosmos 2218 Rocket 4.2 12:26:32 10° W 12:32:29 46° SSW 12:32:29 46° SSW
Iridium 4 Rocket 4.1 12:27:59 10° ESE 12:33:34 66° NNE 12:39:26 10° NW
Cosmos-2242 4.2 12:30:59 10° N 12:34:46 31° WNW 12:35:24 30° W
Cosmos 2233 Rocket 4.2 12:35:10 45° SSE 12:35:42 46° SSE 12:41:31 10° ENE
H-2A R/B 4.2 12:32:13 10° N 12:36:02 29° ENE 12:38:21 19° ESE
Cosmos 1470 4.5 12:33:11 10° NNE 12:36:37 28° NW 12:37:58 23° WNW
Cosmos 1953 4.0 12:34:02 10° NNE 12:37:35 29° NW 12:38:59 23° W
Cosmos 1455 3.7 12:36:37 10° NNW 12:39:24 27° WNW 12:39:24 27° WNW
Cosmos 1634 Rocket 4.4 12:39:58 40° SSE 12:41:18 46° ESE 12:47:12 10° NE
CZ-2C R/B 4.0 12:38:26 10° NNW 12:42:55 33° NNE 12:47:16 10° E
Meteor 1-24 Rocket 4.4 12:43:51 33° SE 12:43:51 33° SE 12:48:24 10° ENE
Cosmos 1726 3.7 12:42:19 10° N 12:45:25 26° WNW 12:45:34 26° WNW
Cosmos 389 Rocket 4.5 12:47:13 20° E 12:47:26 20° E 12:50:09 10° NE
USA 186 3.9 12:47:09 20° NW 12:48:10 24° NNW 12:50:41 10° NE
Cosmos 1725 Rocket 4.2 12:48:32 45° S 12:48:57 46° SSE 12:54:50 10° E
ASTEX 1 3.7 12:45:47 20° W 12:49:11 66° NNW 12:54:11 10° ENE
Cosmos 1745 Rocket 4.3 12:43:45 10° NW 12:49:36 45° WSW 12:50:28 43° SW
Meteor 2-5 Rocket 4.4 12:50:35 35° SE 12:50:35 35° SE 12:55:21 10° E
Cosmos 1802 Rocket 4.2 12:52:41 45° SSE 12:52:49 45° SSE 12:58:38 10° E
Cosmos 2074 Rocket 4.2 12:47:54 10° WNW 12:53:53 46° SW 12:54:21 45° SW
CZ-2C R/B 3.4 12:51:41 10° ENE 12:56:09 35° SE 12:56:09 35° SE
Sich 1 4.4 12:55:18 26° ESE 12:56:39 31° ENE 13:00:27 10° NNE
CZ-4 R/B 3.4 12:53:33 10° WNW 12:57:17 30° N 13:00:58 10° ENE
ADEOS II 3.4 12:54:58 10° N 12:59:49 35° ENE 13:03:37 15° SE
Cosmos 1825 3.8 13:00:35 25° E 13:01:24 27° ENE 13:04:38 10° NNE
Cosmos 2100 Rocket 4.2 13:01:37 46° S 13:01:57 46° S 13:08:00 10° E
SL-08 R/B 4.4 13:02:55 31° W 13:02:55 31° W 13:06:35 10° NW
Cosmos 1709 Rocket 4.2 12:56:47 10° NW 13:02:33 45° WSW 13:03:08 44° SW
Cosmos 2266 Rocket 4.5 12:57:56 10° NNW 13:03:45 45° W 13:05:11 39° WSW
CZ-4B R/B 4.1 13:09:55 11° WNW 13:09:55 11° WNW 13:10:04 10° WNW
Cosmos 2061 Rocket 4.3 13:07:33 46° S 13:08:05 47° SSE 13:14:11 10° E
IDEFIX/ARIANE 42P 4.1 13:04:11 10° NNW 13:08:58 35° NE 13:13:45 10° ESE
Cosmos 1408 4.3 13:08:29 25° E 13:09:08 27° E 13:12:21 10° NNE
Cosmos 1626 3.8 13:10:18 24° E 13:10:18 24° E 13:12:36 10° ENE
Cosmos 2151 4.2 13:10:57 30° ESE 13:11:28 31° ESE 13:15:18 10° NE
YAOGAN 1 4.5 13:10:57 10° NW 13:14:50 30° N 13:18:42 10° ENE
Cosmos 2058 4.2 13:14:40 30° ESE 13:14:56 31° ESE 13:18:40 10° NE
Cosmos 1464 Rocket 4.3 13:14:21 43° SSE 13:15:14 46° SE 13:21:08 10° ENE
Cosmos 1459 Rocket 4.2 13:15:16 46° S 13:15:25 46° S 13:21:15 10° ESE
Cosmos 2228 Rocket 4.2 13:12:43 10° NW 13:16:09 32° W 13:16:09 32° W
Cosmos 1892 4.2 13:17:43 27° ESE 13:18:10 28° E 13:21:28 10° NNE
Cosmos 1934 Rocket 4.4 13:22:25 39° SSE 13:22:25 39° SSE 13:26:45 10° SE
ERS-1 Rocket 4.3 13:18:23 21° W 13:21:01 33° NW 13:25:35 10° NNE
H-2A R/B 3.4 13:21:49 29° WNW 13:21:49 29° WNW 13:25:19 10° NNW
Cosmos 2184 Rocket 4.2 13:17:47 10° NW 13:23:38 45° WSW 13:23:56 45° SW
Cosmos 1437 Rocket 4.5 13:24:20 23° ESE 13:24:52 24° E 13:28:05 10° NE
Cosmos 2341 Rocket 4.2 13:25:09 10° WNW 13:31:13 46° SW 13:31:27 46° SW
ALOS 4.0 13:27:52 10° NW 13:32:09 33° NNE 13:36:25 10° E
Terra 3.1 13:32:29 26° W 13:34:10 32° NW 13:38:30 10° NNE
Cosmos 2016 Rocket 4.2 13:33:56 45° S 13:34:12 46° S 13:40:03 10° ESE
Cosmos 1605 Rocket 4.2 13:34:32 46° S 13:34:32 46° S 13:40:28 10° ESE
Cosmos 2221 3.7 13:32:51 10° N 13:36:42 32° WNW 13:36:48 32° WNW
SL-8 Rocket 4.2 13:32:13 10° WNW 13:38:09 46° SW 13:38:09 46° SW
GP-B 3.0 13:42:10 74° S 13:42:34 88° E 13:47:04 10° N
Cosmos 405 Rocket 4.4 13:40:12 10° N 13:43:33 25° NW 13:44:01 24° WNW
H-2A R/B 3.4 13:40:56 16° W 13:44:22 33° NNW 13:48:52 10° NE
ARIANE 5 R/B 3.9 13:39:44 10° NNE 13:44:28 34° E 13:47:33 19° SE
CZ-2D R/B 3.4 13:39:42 10° NNE 13:44:46 36° E 13:47:32 23° SE
Cosmos 2034 Rocket 4.4 13:45:27 42° S 13:46:32 46° SSE 13:52:29 10° ENE
CZ-4B R/B 4.5 13:44:00 10° ENE 13:48:22 31° ESE 13:49:08 29° SE
ALOS 2 3.8 13:49:34 30° WNW 13:49:54 31° WNW 13:53:51 10° N
Meteor 1-4 Rocket 4.5 13:51:29 20° ESE 13:51:31 20° ESE 13:54:11 10° NE
Helios 1A 4.4 13:50:45 26° WNW 13:51:40 28° NW 13:55:18 10° NNE
Cosmos 1300 4.2 13:49:39 10° N 13:52:55 27° NW 13:52:55 27° NW
MOS 1 Rocket 4.2 13:49:47 10° ENE 13:53:52 34° SE 13:53:58 34° SE
Helios 1B rocket 3.9 13:50:53 10° E 13:53:33 25° ESE 13:53:33 25° ESE
Resurs 01 Rocket 3.3 13:53:42 14° WNW 13:56:54 30° NNW 14:00:51 10° NE
ADEOS Rocket 3.8 13:50:40 10° E 13:57:00 43° SSE 13:58:34 38° S
ARGOS 4.5 13:53:48 14° WNW 13:57:59 35° NNW 14:02:55 10° NE
SL-16 R/B 3.1 13:58:23 37° WSW 13:58:51 37° W 14:04:40 10° NNW
Okean O Rocket 3.5 13:57:03 10° N 14:00:56 30° NE 14:04:48 10° ESE
Cosmos 2154 Rocket 4.2 13:56:03 10° NW 14:02:01 46° WSW 14:02:14 46° SW
Cosmos 1238 Rocket 4.2 14:02:31 39° SSE 14:03:18 41° SE 14:07:58 10° ENE
ERS-2 4.0 14:02:55 22° NW 14:03:34 23° NW 14:06:37 10° NNE
Cosmos 1151 Rocket 4.2 14:00:08 10° NNW 14:03:26 31° WNW 14:03:26 31° WNW
Cosmos 2366 rocket 4.2 13:59:03 10° WNW 14:04:21 45° WSW 14:04:21 45° WSW
CZ-2C R/B 4.2 14:03:35 23° WNW 14:05:43 33° NNW 14:10:12 10° NE
Cosmos 1821 Rocket 4.3 14:00:24 10° W 14:07:27 43° S 14:12:29 10° SE
Mayak 0.0 14:04:18 10° ENE 14:07:42 30° SE 14:07:42 30° SE
SPOT 5 4.1 14:07:19 23° WNW 14:08:51 29° NNW 14:12:41 10° NNE
Resurs 1-4 Rocket 3.3 14:04:17 10° NNE 14:09:08 35° E 14:11:38 23° SE
Cosmos 2173 Rocket 4.2 14:09:54 46° SSW 14:10:05 46° S 14:16:01 10° ESE
Cosmos-2242 4.2 14:07:50 10° NNE 14:11:37 31° NW 14:12:15 30° WNW
Cosmos 1470 4.5 14:08:33 10° NE 14:11:59 28° NNW 14:13:20 23° NW
USA 32 4.4 14:06:58 10° NNE 14:12:05 51° WNW 14:13:02 45° W
SL-24 R/B 4.2 14:07:23 10° ENE 14:12:18 72° SSE 14:12:49 65° SSW
H-2A R/B 4.2 14:08:48 10° NNE 14:12:37 29° E 14:14:56 19° SE
Cosmos 1953 4.0 14:09:43 10° NE 14:13:17 29° NNW 14:14:41 23° NW
Iridium 4 Rocket 4.1 14:07:46 10° SE 14:13:21 66° NE 14:19:13 10° NNW
Cosmos 1455 3.7 14:11:33 10° N 14:14:20 27° NW 14:14:20 27° NW
Cosmos 2218 Rocket 4.2 14:11:19 10° WNW 14:17:15 46° SW 14:17:15 46° SW
USA 186 3.9 14:18:39 20° NNW 14:19:39 24° N 14:22:10 10° ENE
Cosmos 1726 3.7 14:16:51 10° NNE 14:19:57 26° NW 14:20:07 26° NW
Cosmos 2233 Rocket 4.2 14:19:45 45° S 14:20:16 46° S 14:26:06 10° ESE
Cosmos 389 Rocket 4.5 14:21:08 20° ESE 14:21:22 20° ESE 14:24:04 10° ENE
CZ-2C R/B 4.0 14:17:49 10° N 14:22:18 33° NE 14:26:39 10° ESE
Meteor 1-24 Rocket 4.4 14:26:02 33° SSE 14:26:02 33° SSE 14:30:34 10° E
Cosmos 1634 Rocket 4.4 14:24:38 40° S 14:25:59 46° SE 14:31:53 10° ENE
ASTEX 1 3.7 14:25:17 20° WNW 14:28:42 66° N 14:33:41 10° E
Meteor 2-5 Rocket 4.4 14:33:03 35° SSE 14:33:03 35° SSE 14:37:49 10° ESE
CZ-4 R/B 3.4 14:29:35 10° NNW 14:33:19 30° NNE 14:37:00 10° E
Sich 1 4.4 14:32:17 26° SE 14:33:36 31° ESE 14:37:25 10° NE
Cosmos 1725 Rocket 4.2 14:33:13 45° SSW 14:33:37 46° S 14:39:29 10° ESE
Cosmos 1745 Rocket 4.3 14:28:25 10° NNW 14:34:15 45° W 14:35:07 43° WSW
Cosmos 1825 3.8 14:35:26 25° ESE 14:36:13 27° ESE 14:39:28 10° NE
Cosmos 1802 Rocket 4.2 14:37:31 45° SSW 14:37:37 45° S 14:43:27 10° ESE
CZ-2C R/B 3.4 14:33:12 10° E 14:37:40 35° SSE 14:37:40 35° SSE
Cosmos 2074 Rocket 4.2 14:32:35 10° NNW 14:38:33 46° WSW 14:39:02 45° WSW
ADEOS II 3.4 14:35:55 10° NNE 14:40:45 35° E 14:44:34 15° SSE
CZ-4B R/B 4.1 14:43:17 11° NW 14:43:17 11° NW 14:43:27 10° NNW
SL-08 R/B 4.4 14:41:54 31° WNW 14:41:54 31° WNW 14:45:34 10° NNW
Cosmos 1408 4.2 14:42:52 25° ESE 14:43:30 27° ESE 14:46:43 10° NE
Cosmos 1626 3.8 14:44:54 24° SE 14:44:54 24° SE 14:47:11 10° E
Cosmos 1633 Rocket 4.5 14:44:02 24° SE 14:45:40 32° E 14:49:34 10° NE
Cosmos 2100 Rocket 4.2 14:46:20 46° SSW 14:46:39 46° SSW 14:52:43 10° SE
Cosmos 1709 Rocket 4.2 14:41:25 10° NNW 14:47:12 45° W 14:47:48 44° WSW
Cosmos 2151 4.2 14:47:32 30° SE 14:48:02 31° SE 14:51:52 10° ENE
Cosmos 2266 Rocket 4.5 14:42:29 10° NNE 14:48:19 45° WNW 14:49:45 39° W
IDEFIX/ARIANE 42P 4.1 14:45:01 10° N 14:49:47 35° ENE 14:54:34 10° SE
Cosmos 2058 4.2 14:50:52 30° SE 14:51:08 31° SE 14:54:52 10° ENE
YAOGAN 1 4.5 14:48:07 10° NNW 14:51:59 30° NNE 14:55:52 10° E
Cosmos 2061 Rocket 4.3 14:52:30 46° SSW 14:53:02 47° SSW 14:59:08 10° ESE
Cosmos 1892 4.2 14:52:44 27° SE 14:53:11 28° ESE 14:56:28 10° ENE
Cosmos 2228 Rocket 4.2 14:50:12 10° N 14:53:38 32° WNW 14:53:38 32° WNW
H-2A R/B 3.4 14:58:55 29° NW 14:58:55 29° NW 15:02:26 10° N
Cosmos 1464 Rocket 4.3 14:59:02 43° SSW 14:59:55 46° S 15:05:50 10° ESE
Cosmos 1459 Rocket 4.2 14:59:47 46° SSW 14:59:55 46° SSW 15:05:46 10° SE
Cosmos 1437 Rocket 4.5 14:59:45 23° SE 15:00:16 24° ESE 15:03:30 10° ENE
ERS-1 Rocket 4.3 14:58:23 21° WNW 15:01:01 33° NNW 15:05:35 10° NE
Cosmos 1934 Rocket 4.5 15:06:58 38° S 15:06:58 38° S 15:11:15 10° SSE
Cosmos 2184 Rocket 4.2 15:02:33 10° NNW 15:08:24 45° W 15:08:42 45° WSW
ALOS 4.0 15:06:24 10° NNW 15:10:40 33° NE 15:14:56 10° ESE
Terra 3.1 15:11:22 26° WNW 15:13:04 32° NNW 15:17:22 10° NE
Cosmos 2221 3.7 15:09:42 10° NNE 15:13:33 32° NW 15:13:39 32° NW
Cosmos 2341 Rocket 4.2 15:10:03 10° NW 15:16:06 46° WSW 15:16:20 46° WSW
Cosmos 405 Rocket 4.4 15:15:21 10° NNE 15:18:43 25° NNW 15:19:11 24° NW
Cosmos 2016 Rocket 4.2 15:18:34 45° SSW 15:18:50 46° SSW 15:24:39 10° SE
Cosmos 1605 Rocket 4.2 15:19:12 46° SW 15:19:12 46° SW 15:25:08 10° SSE
GP-B 3.0 15:19:37 74° SSW 15:20:01 88° ESE 15:24:31 10° NNE
SL-8 Rocket 4.2 15:16:50 10° NW 15:22:46 46° WSW 15:22:46 46° WSW
ARIANE 5 R/B 3.9 15:20:05 10° NE 15:24:49 34° ESE 15:27:53 19° SSE
H-2A R/B 3.4 15:21:33 16° NW 15:24:59 33° N 15:29:29 10° ENE
Meteor 1-4 Rocket 4.5 15:25:44 20° SE 15:25:45 20° SE 15:28:25 10° E
CZ-2D R/B 3.4 15:21:01 10° NE 15:26:05 36° ESE 15:28:50 23° SSE
ALOS 2 3.8 15:26:58 30° NW 15:27:17 31° NW 15:31:14 10° NNE
Cosmos 1300 4.2 15:24:36 10° NNE 15:27:54 27° NNW 15:27:54 27° NNW
Helios 1A 4.4 15:27:23 26° NW 15:28:18 28° NNW 15:31:56 10° NE
Helios 1B rocket 3.9 15:27:14 10° ESE 15:29:53 25° SSE 15:29:53 25° SSE
Cosmos 2034 Rocket 4.4 15:30:11 42° SSW 15:31:16 46° S 15:37:13 10° ESE
MOS 1 Rocket 4.2 15:29:05 10° E 15:33:11 34° SSE 15:33:17 34° SSE
Resurs 01 Rocket 3.3 15:31:16 14° NW 15:34:29 30° NNE 15:38:26 10° ENE
ERS-2 4.0 15:37:35 22° NNW 15:38:14 23° N 15:41:16 10° NE
Okean O Rocket 3.5 15:34:30 10° NNE 15:38:23 30° ENE 15:42:16 10° SE
ARGOS 4.5 15:35:19 14° NW 15:39:30 35° N 15:44:26 10° ENE
Cosmos 1151 Rocket 4.2 15:36:59 10° N 15:40:16 31° NW 15:40:16 31° NW
Cosmos 1238 Rocket 4.2 15:41:30 39° S 15:42:18 41° SSE 15:46:56 10° E
SL-16 R/B 3.1 15:43:29 37° W 15:43:56 37° WNW 15:49:45 10° N
ADEOS Rocket 3.8 15:37:37 10° ESE 15:43:57 43° S 15:45:30 38° SSW
Mayak 0.0 15:40:55 10° ESE 15:44:19 30° SSE 15:44:19 30° SSE
CZ-2C R/B 4.2 15:44:39 23° NW 15:46:47 33° N 15:51:16 10° ENE
Cosmos 2154 Rocket 4.2 15:40:50 10° NNW 15:46:48 46° W 15:47:01 46° W
Cosmos 1470 4.5 15:43:54 10° ENE 15:47:20 28° N 15:48:42 23° NNW
SPOT 5 4.1 15:46:32 23° NW 15:48:05 29° N 15:51:55 10° NE
Cosmos-2242 4.2 15:44:40 10° NE 15:48:28 31° NNW 15:49:05 30° NW
Cosmos 1953 4.0 15:45:26 10° ENE 15:48:59 29° N 15:50:24 23° NNW
H-2A R/B 4.2 15:45:23 10° NE 15:49:12 29° ESE 15:51:31 19° SSE
Cosmos 2366 rocket 4.2 15:43:43 10° NW 15:49:02 45° W 15:49:02 45° W
Cosmos 1455 3.7 15:46:29 10° NNE 15:49:17 27° NNW 15:49:17 27° NNW
Resurs 1-4 Rocket 3.3 15:45:22 10° ENE 15:50:13 35° SE 15:52:42 23° S
Cosmos 1821 Rocket 4.4 15:45:03 10° NW 15:52:08 43° SSW 15:57:07 10° SSE
USA 186 3.9 15:50:08 20° N 15:51:08 23° NNE 15:53:38 10° E
USA 32 4.4 15:47:30 10° NE 15:52:36 51° NW 15:53:33 45° WNW
Iridium 4 Rocket 4.1 15:47:33 10° SSE 15:53:08 66° ENE 15:59:00 10° N
Cosmos 1726 3.7 15:51:24 10° NE 15:54:29 26° NNW 15:54:39 26° NNW
Cosmos 2173 Rocket 4.2 15:54:31 46° SW 15:54:41 46° SSW 16:00:37 10° SE
Cosmos 389 Rocket 4.5 15:55:03 20° SE 15:55:16 20° SE 15:57:58 10° E
SL-24 R/B 4.2 15:50:48 10° E 15:55:42 72° S 15:56:14 65° SW
CZ-2C R/B 4.0 15:57:13 10° NNE 16:01:41 33° E 16:06:02 10° SE
Cosmos 2218 Rocket 4.2 15:56:05 10° NW 16:02:02 46° WSW 16:02:02 46° WSW
Cosmos 2233 Rocket 4.2 16:04:20 45° SW 16:04:51 46° SSW 16:10:40 10° SE
Meteor 1-24 Rocket 4.4 16:08:13 33° S 16:08:13 33° S 16:12:45 10° SE
ASTEX 1 3.7 16:04:48 20° NW 16:08:12 66° NE 16:13:12 10° ESE
CZ-4 R/B 3.4 16:05:37 10° N 16:09:22 30° NE 16:13:02 10° ESE
Sich 1 4.4 16:09:15 26° SSE 16:10:34 31° SE 16:14:22 10° ENE
Cosmos 1634 Rocket 4.4 16:09:19 40° SSW 16:10:38 46° S 16:16:33 10° ESE
Cosmos 1825 3.8 16:10:16 25° SSE 16:11:04 27° SE 16:14:18 10° ENE
CZ-4B R/B 4.1 16:16:40 11° NNW 16:16:40 11° NNW 16:16:49 10° N
Meteor 2-5 Rocket 4.4 16:15:31 35° S 16:15:31 35° S 16:20:17 10° SE
Cosmos 1408 4.2 16:17:14 26° SSE 16:17:53 27° SE 16:21:05 10° ENE
Cosmos 1725 Rocket 4.2 16:17:54 45° SW 16:18:17 46° SSW 16:24:10 10° SE
Cosmos 1626 3.8 16:19:29 24° SSE 16:19:29 24° SSE 16:21:46 10° ESE
Cosmos 1745 Rocket 4.3 16:13:05 10° NNE 16:18:54 45° WNW 16:19:47 43° W
CZ-2C R/B 3.4 16:14:43 10° SE 16:19:11 35° S 16:19:11 35° S
SL-08 R/B 4.4 16:20:52 31° NW 16:20:52 31° NW 16:24:33 10° N
ADEOS II 3.4 16:16:51 10° NE 16:21:42 35° ESE 16:25:30 15° S
Cosmos 1802 Rocket 4.2 16:22:20 45° SW 16:22:26 45° SW 16:28:16 10° SSE
Cosmos 1633 Rocket 4.5 16:21:07 24° SSE 16:22:44 32° SE 16:26:38 10° ENE
Cosmos 2074 Rocket 4.2 16:17:15 10° N 16:23:14 46° WNW 16:23:43 45° W
Cosmos 2151 4.2 16:24:07 30° SSE 16:24:36 31° SSE 16:28:27 10° E
Cosmos 2058 4.2 16:27:05 30° SSE 16:27:20 31° SSE 16:31:04 10° E
Cosmos 1892 4.2 16:27:45 27° SSE 16:28:11 28° SE 16:31:29 10° E
YAOGAN 1 4.5 16:25:17 10° N 16:29:10 30° NE 16:33:02 10° ESE
IDEFIX/ARIANE 42P 4.1 16:25:49 10° NNE 16:30:35 35° E 16:35:23 10° SSE
Cosmos 2100 Rocket 4.2 16:31:04 46° SW 16:31:23 46° SW 16:37:26 10° SSE
Cosmos 2228 Rocket 4.2 16:27:40 10° NNE 16:31:07 32° NNW 16:31:07 32° NNW
Cosmos 1709 Rocket 4.2 16:26:05 10° N 16:31:51 45° WNW 16:32:26 44° W
Cosmos 2266 Rocket 4.5 16:27:04 10° NE 16:32:53 45° NNW 16:34:19 39° WNW
H-2A R/B 3.4 16:36:02 29° NNW 16:36:02 29° NNW 16:39:32 10° NNE
Cosmos 1437 Rocket 4.5 16:35:09 23° SSE 16:35:41 24° SE 16:38:55 10° E
Cosmos 2061 Rocket 4.3 16:37:28 46° SW 16:37:59 47° SW 16:44:05 10° SSE
ERS-1 Rocket 4.3 16:38:23 21° NW 16:41:01 33° NNE 16:45:35 10° ENE
Cosmos 1459 Rocket 4.2 16:44:18 46° SW 16:44:26 46° SW 16:50:16 10° SSE
Cosmos 1464 Rocket 4.3 16:43:44 43° SW 16:44:36 46° SSW 16:50:31 10° SE
ALOS 4.0 16:44:54 10° N 16:49:11 33° ENE 16:53:27 10° SE
Cosmos 1934 Rocket 4.5 16:51:31 38° SSW 16:51:31 38° SSW 16:55:46 10° S
Cosmos 2221 3.7 16:46:33 10° NE 16:50:23 32° NNW 16:50:30 32° NNW
Terra 3.1 16:50:16 26° NNW 16:51:56 32° N 16:56:15 10° ENE
Cosmos 2184 Rocket 4.2 16:47:19 10° N 16:53:10 45° WNW 16:53:28 45° W
Cosmos 405 Rocket 4.4 16:50:31 10° NE 16:53:52 25° N 16:54:21 24° NNW
GP-B 3.0 16:57:04 74° SW 16:57:29 88° SE 17:01:58 10° NE
Meteor 1-4 Rocket 4.5 16:59:57 20° SSE 16:59:58 20° SSE 17:02:39 10° ESE
Cosmos 2341 Rocket 4.2 16:54:56 10° NNW 17:01:00 46° W 17:01:14 46° W
Cosmos 1300 4.2 16:59:34 10° NE 17:02:51 27° N 17:02:51 27° N
Cosmos 2016 Rocket 4.2 17:03:11 45° SW 17:03:27 46° SW 17:09:17 10° SSE
Cosmos 1605 Rocket 4.2 17:03:52 46° WSW 17:03:52 46° WSW 17:09:46 10° S
ALOS 2 3.8 17:04:21 31° NNW 17:04:41 31° NNW 17:08:38 10° NE
Helios 1A 4.4 17:04:01 26° NNW 17:04:56 28° N 17:08:34 10° ENE
ARIANE 5 R/B 3.9 17:00:25 10° ENE 17:05:09 34° SE 17:08:14 19° S
H-2A R/B 3.4 17:02:11 16° NNW 17:05:37 33° NNE 17:10:06 10° E
Helios 1B rocket 3.9 17:03:34 10° SE 17:06:13 25° S 17:06:13 25° S
CZ-2D R/B 3.4 17:02:20 10° ENE 17:07:25 36° SE 17:10:09 23° SSW
SL-8 Rocket 4.2 17:01:28 10° NNW 17:07:24 46° W 17:07:24 46° W
Resurs 01 Rocket 3.3 17:08:50 14° NNW 17:12:03 30° NE 17:15:59 10° E
MOS 1 Rocket 4.2 17:08:24 10° ESE 17:12:29 34° S 17:12:35 34° S
ERS-2 4.0 17:12:15 22° N 17:12:54 23° NNE 17:15:56 10° ENE
Okean O Rocket 3.5 17:11:57 10° NE 17:15:51 30° E 17:19:43 10° SSE
Cosmos 2034 Rocket 4.4 17:14:56 42° SW 17:16:01 46° SSW 17:21:58 10° SE
Cosmos 1151 Rocket 4.2 17:13:49 10° NNE 17:17:07 31° NNW 17:17:07 31° NNW
ARGOS 4.5 17:16:50 14° NNW 17:21:00 35° NE 17:25:57 10° E
Cosmos 1238 Rocket 4.2 17:20:30 39° SSW 17:21:17 41° S 17:25:54 10° ESE
Mayak 0.0 17:17:31 10° SE 17:20:55 30° S 17:20:55 30° S
USA 186 3.9 17:21:37 20° NNE 17:22:37 23° NE 17:25:07 10° ESE
Cosmos 1470 4.5 17:19:16 10° E 17:22:41 28° NNE 17:24:04 23° N
Cosmos 1953 4.0 17:21:08 10° E 17:24:41 29° NNE 17:26:06 23° N
Cosmos 1455 3.7 17:21:25 10° NE 17:24:13 27° N 17:24:13 27° N
Cosmos-2242 4.2 17:21:31 10° ENE 17:25:19 31° N 17:25:56 30° NNW
H-2A R/B 4.2 17:21:58 10° ENE 17:25:47 29° SE 17:28:06 19° S
SPOT 5 4.1 17:25:46 23° NNW 17:27:19 29° NNE 17:31:08 10° E
CZ-2C R/B 4.2 17:25:42 23° NNW 17:27:51 33° NNE 17:32:20 10° E
Cosmos 1726 3.7 17:25:56 10° ENE 17:29:01 26° N 17:29:11 26° N
SL-16 R/B 3.1 17:28:34 37° NW 17:29:02 37° NW 17:34:50 10° NNE
Cosmos 389 Rocket 4.5 17:28:59 20° SSE 17:29:11 20° SSE 17:31:53 10° ESE
ADEOS Rocket 3.8 17:24:33 10° SE 17:30:53 43° SSW 17:32:28 38° WSW
Resurs 1-4 Rocket 3.3 17:26:27 10° E 17:31:18 35° SSE 17:33:47 23° SSW
Cosmos 2154 Rocket 4.2 17:25:37 10° N 17:31:34 46° WNW 17:31:48 46° WNW
Iridium 4 Rocket 4.1 17:27:20 10° S 17:32:55 66° ESE 17:38:48 10° NNE
USA 32 4.4 17:28:00 10° ENE 17:33:07 51° N 17:34:04 45° NW
Cosmos 2366 rocket 4.2 17:28:23 10° NNW 17:33:42 45° WNW 17:33:42 45° WNW
Cosmos 1821 Rocket 4.4 17:29:41 10° NNW 17:36:51 42° SW 17:41:47 10° SSW
SL-24 R/B 4.2 17:34:12 10° SE 17:39:07 72° SSW 17:39:38 65° WSW
Cosmos 2173 Rocket 4.2 17:39:07 46° WSW 17:39:17 46° WSW 17:45:14 10° S
CZ-2C R/B 4.0 17:36:36 10° NE 17:41:04 33° ESE 17:45:25 10° S
CZ-4 R/B 3.4 17:41:40 10° NNE 17:45:23 30° ENE 17:49:04 10° SE
Cosmos 1825 3.8 17:45:06 25° S 17:45:53 27° SSE 17:49:08 10° E
Cosmos 2218 Rocket 4.2 17:40:52 10° N 17:46:48 46° WNW 17:46:48 46° WNW
Sich 1 4.4 17:46:13 26° S 17:47:32 31° SSE 17:51:21 10° E
CZ-4B R/B 4.1 17:50:02 11° NNE 17:50:02 11° NNE 17:50:11 10° NNE
ASTEX 1 3.7 17:44:18 20° NNW 17:47:43 66° ENE 17:52:42 10° SE
Cosmos 2233 Rocket 4.2 17:48:56 45° WSW 17:49:26 46° SW 17:55:15 10° SSE
Meteor 1-24 Rocket 4.4 17:50:24 33° SSW 17:50:24 33° SSW 17:54:56 10° SSE
Cosmos 1408 4.2 17:51:36 26° S 17:52:15 27° SSE 17:55:27 10° E
Cosmos 1626 3.8 17:54:05 24° S 17:54:05 24° S 17:56:21 10° SE
Cosmos 1634 Rocket 4.4 17:53:59 40° SW 17:55:18 46° SSW 18:01:13 10° SE
Meteor 2-5 Rocket 4.4 17:58:00 35° SSW 17:58:00 35° SSW 18:02:45 10° SSE
SL-08 R/B 4.4 17:59:51 31° NNW 17:59:51 31° NNW 18:03:32 10° NNE
Cosmos 1633 Rocket 4.5 17:58:12 24° S 17:59:49 32° SSE 18:03:43 10° E
CZ-2C R/B 3.4 17:56:14 10° SSE 18:00:42 35° SSW 18:00:42 35° SSW
Cosmos 2151 4.2 18:00:42 30° S 18:01:11 31° S 18:05:01 10° ESE
ADEOS II 3.4 17:57:48 10° ENE 18:02:38 35° SE 18:06:26 15° SSW
Cosmos 1725 Rocket 4.2 18:02:34 45° WSW 18:02:58 46° WSW 18:08:50 10° SSE
Cosmos 1892 4.2 18:02:45 27° S 18:03:11 28° SSE 18:06:29 10° ESE
Cosmos 2058 4.2 18:03:17 30° S 18:03:32 31° S 18:07:16 10° ESE
Cosmos 1745 Rocket 4.3 17:57:44 10° NE 18:03:34 45° NNW 18:04:26 43° NW
YAOGAN 1 4.5 18:02:26 10° NNE 18:06:19 30° E 18:10:11 10° SE
Cosmos 1802 Rocket 4.2 18:07:09 45° WSW 18:07:15 45° WSW 18:13:04 10° S
Cosmos 2074 Rocket 4.2 18:01:57 10° NNE 18:07:55 46° NW 18:08:24 45° WNW
Cosmos 2228 Rocket 4.2 18:05:09 10° NE 18:08:36 32° N 18:08:36 32° N
Cosmos 1437 Rocket 4.5 18:10:34 23° S 18:11:05 24° S 18:14:19 10° ESE
IDEFIX/ARIANE 42P 4.1 18:06:37 10° NE 18:11:24 35° ESE 18:16:11 10° S
H-2A R/B 3.4 18:13:08 29° N 18:13:08 29° N 18:16:38 10° NE
Cosmos 2100 Rocket 4.2 18:15:47 46° WSW 18:16:06 46° WSW 18:22:09 10° S
Cosmos 1709 Rocket 4.2 18:10:44 10° NNE 18:16:30 45° NW 18:17:05 44° NW
Cosmos 2266 Rocket 4.5 18:11:38 10° ENE 18:17:27 45° N 18:18:53 39° NW
ERS-1 Rocket 4.3 18:18:23 21° NNW 18:21:00 33° NE 18:25:34 10° ESE
Cosmos 2061 Rocket 4.3 18:22:25 46° W 18:22:56 47° WSW 18:29:01 10° S
Cosmos 2221 3.7 18:23:24 10° ENE 18:27:15 32° N 18:27:21 32° N
ALOS 4.0 18:23:25 10° NNE 18:27:41 33° E 18:31:58 10° SSE
Cosmos 1459 Rocket 4.2 18:28:49 46° WSW 18:28:56 46° WSW 18:34:47 10° S
Cosmos 405 Rocket 4.4 18:25:41 10° ENE 18:29:02 25° NNE 18:29:30 24° N
Cosmos 1464 Rocket 4.3 18:28:26 43° WSW 18:29:17 46° SW 18:35:12 10° SSE
Terra 3.1 18:29:09 26° N 18:30:50 32° NNE 18:35:09 10° E
Meteor 1-4 Rocket 4.5 18:34:11 20° S 18:34:12 20° S 18:36:52 10° SE
Cosmos 1934 Rocket 4.5 18:36:03 38° SW 18:36:03 38° SW 18:40:17 10° SSW
GP-B 3.0 18:34:32 74° WSW 18:34:55 88° SSE 18:39:25 10° ENE
Cosmos 1300 4.2 18:34:32 10° ENE 18:37:50 27° NNE 18:37:50 27° NNE
Cosmos 2184 Rocket 4.2 18:32:05 10° NNE 18:37:56 45° NW 18:38:14 45° NW
Helios 1A 4.4 18:40:39 26° N 18:41:34 28° NNE 18:45:12 10° E
ALOS 2 3.8 18:41:45 31° N 18:42:05 31° N 18:46:02 10° ENE
Helios 1B rocket 3.9 18:39:54 10° SSE 18:42:34 25° SSW 18:42:34 25° SSW
ARIANE 5 R/B 3.9 18:40:45 10° E 18:45:29 34° SSE 18:48:34 19° SSW
Cosmos 2341 Rocket 4.2 18:39:49 10° NNE 18:45:53 46° NW 18:46:07 46° WNW
H-2A R/B 3.4 18:42:48 16° N 18:46:14 33° NE 18:50:44 10° ESE
ERS-2 4.0 18:46:55 22° NNE 18:47:33 23° NE 18:50:36 10° E
Cosmos 2016 Rocket 4.2 18:47:49 45° WSW 18:48:04 46° WSW 18:53:54 10° S
Cosmos 1605 Rocket 4.2 18:48:31 46° W 18:48:31 46° W 18:54:26 10° SSW
CZ-2D R/B 3.4 18:43:40 10° ESE 18:48:44 36° S 18:51:30 23° SW
Resurs 01 Rocket 3.3 18:46:24 14° N 18:49:37 30° ENE 18:53:34 10° SE
MOS 1 Rocket 4.2 18:47:42 10° SE 18:51:48 34° SSW 18:51:54 34° SSW
SL-8 Rocket 4.2 18:46:06 10° N 18:52:01 46° WNW 18:52:01 46° WNW
Okean O Rocket 3.5 18:49:24 10° ENE 18:53:18 30° SE 18:57:10 10° S
USA 186 3.9 18:53:06 20° NE 18:54:06 23° ENE 18:56:36 10° SE
Cosmos 1151 Rocket 4.2 18:50:39 10° NE 18:53:57 31° N 18:53:57 31° N
Mayak 0.0 18:54:08 10° SSE 18:57:31 30° SSW 18:57:31 30° SSW
Cosmos 1470 4.5 18:54:37 10° ESE 18:58:02 28° NE 18:59:25 23° NNE
Cosmos 1455 3.7 18:56:21 10° ENE 18:59:09 27° NNE 18:59:09 27° NNE
Cosmos 1238 Rocket 4.2 18:59:30 39° SW 19:00:15 41° SSW 19:04:53 10° SE
Cosmos 1953 4.0 18:56:50 10° ESE 19:00:22 29° NE 19:01:48 23° NNE
Cosmos 2034 Rocket 4.4 18:59:40 42° WSW 19:00:45 46° SW 19:06:42 10° SSE
Cosmos-2242 4.2 18:58:22 10° E 19:02:09 31° NNE 19:02:47 30° NNE
H-2A R/B 4.2 18:58:33 10° E 19:02:22 29° SSE 19:04:40 19° SSW
ARGOS 4.5 18:58:20 14° N 19:02:31 35° ENE 19:07:27 10° SE
Cosmos 1726 3.7 19:00:28 10° E 19:03:34 26° NE 19:03:44 26° NNE
SPOT 5 4.1 19:05:01 23° N 19:06:33 29° NE 19:10:23 10° ESE
CZ-2C R/B 4.2 19:06:46 23° N 19:08:54 33° NE 19:13:23 10° ESE
Resurs 1-4 Rocket 3.3 19:07:32 10° ESE 19:12:22 35° S 19:14:51 23° SW
Iridium 4 Rocket 4.1 19:07:06 10° SSW 19:12:42 66° SE 19:18:34 10° NE
USA 32 4.4 19:08:32 10° E 19:13:38 51° NNE 19:14:36 45° NNW
SL-16 R/B 3.1 19:13:40 37° NNW 19:14:07 37° NNW 19:19:56 10° NE
Cosmos 2154 Rocket 4.2 19:10:23 10° NNE 19:16:21 46° NW 19:16:34 46° NW
ADEOS Rocket 3.8 19:11:31 10° SSE 19:17:51 43° SW 19:19:25 38° W
Cosmos 2366 rocket 4.2 19:13:03 10° NNE 19:18:23 45° NW 19:18:23 45° NW
Cosmos 1821 Rocket 4.4 19:14:20 10° N 19:21:33 42° W 19:26:25 10° SW
CZ-2C R/B 4.0 19:15:59 10° ENE 19:20:27 33° SE 19:24:48 10° SSW
Cosmos 1825 3.8 19:19:56 25° SSW 19:20:42 27° S 19:23:57 10° ESE
CZ-4B R/B 4.1 19:23:25 11° NE 19:23:25 11° NE 19:23:34 10° NE
CZ-4 R/B 3.4 19:17:42 10° NE 19:21:26 30° ESE 19:25:06 10° SSE
SL-24 R/B 4.2 19:17:37 10° SSE 19:22:31 72° SW 19:23:02 65° W
Cosmos 2173 Rocket 4.2 19:23:44 46° W 19:23:53 46° W 19:29:50 10° SSW
Sich 1 4.4 19:23:11 26° SSW 19:24:29 31° S 19:28:18 10° ESE
Cosmos 1408 4.2 19:25:59 26° SSW 19:26:36 27° S 19:29:49 10° ESE
ASTEX 1 3.7 19:23:48 20° N 19:27:14 66° E 19:32:13 10° SSE
Cosmos 1626 3.8 19:28:40 24° SSW 19:28:40 24° SSW 19:30:57 10° SSE
Cosmos 2218 Rocket 4.2 19:25:38 10° NNE 19:31:35 46° NW 19:31:35 46° NW
Meteor 1-24 Rocket 4.4 19:32:35 33° SW 19:32:35 33° SW 19:37:06 10° S
Cosmos 2233 Rocket 4.2 19:33:31 45° W 19:34:00 46° WSW 19:39:50 10° S
Cosmos 1633 Rocket 4.5 19:35:17 24° SSW 19:36:53 32° S 19:40:48 10° ESE
Cosmos 2151 4.2 19:37:17 31° SSW 19:37:45 31° SSW 19:41:35 10° SE
SL-08 R/B 4.4 19:38:50 31° N 19:38:50 31° N 19:42:31 10° NE
Cosmos 1892 4.2 19:37:46 27° SSW 19:38:12 28° S 19:41:29 10° SE
Cosmos 2058 4.2 19:39:30 30° SSW 19:39:45 31° SSW 19:43:28 10° SE
Cosmos 1634 Rocket 4.4 19:38:39 40° WSW 19:39:58 46° SW 19:45:53 10° SSE
Meteor 2-5 Rocket 4.4 19:40:28 35° WSW 19:40:28 35° WSW 19:45:13 10° S
CZ-2C R/B 3.4 19:37:44 10° S 19:42:13 35° SW 19:42:13 35° SW
YAOGAN 1 4.5 19:39:36 10° NE 19:43:28 30° ESE 19:47:21 10° SSE
ADEOS II 3.4 19:38:45 10° E 19:43:35 35° SSE 19:47:23 15° SW
Cosmos 2228 Rocket 4.2 19:42:38 10° ENE 19:46:05 32° NNE 19:46:05 32° NNE
Cosmos 1725 Rocket 4.2 19:47:15 45° W 19:47:38 46° W 19:53:31 10° SSW
Cosmos 1745 Rocket 4.3 19:42:23 10° ENE 19:48:13 45° N 19:49:06 43° NNW
H-2A R/B 3.4 19:50:15 29° NNE 19:50:15 29° NNE 19:53:45 10° ENE
Cosmos 1802 Rocket 4.2 19:51:59 45° W 19:52:04 45° W 19:57:54 10° SSW
IDEFIX/ARIANE 42P 4.1 19:47:25 10° E 19:52:12 35° SSE 19:56:59 10° SSW
Cosmos 2074 Rocket 4.2 19:46:38 10° NE 19:52:36 46° NNW 19:53:05 45° NW
Cosmos 2100 Rocket 4.2 20:00:31 46° WNW 20:00:50 46° W 20:06:53 10° SSW
ERS-1 Rocket 4.3 19:58:23 21° NNE 20:01:00 33° ENE 20:05:34 10° SE
Cosmos 1709 Rocket 4.2 19:55:22 10° ENE 20:01:08 45° N 20:01:44 44° NNW
Cosmos 2266 Rocket 4.5 19:56:12 10° E 20:02:01 45° NNE 20:03:28 39° NNW
Cosmos 2221 3.7 20:00:15 10° E 20:04:05 32° NNE 20:04:12 32° NNE
Cosmos 405 Rocket 4.4 20:00:51 10° E 20:04:12 25° NE 20:04:40 24° NNE
ALOS 4.0 20:01:56 10° ENE 20:06:13 33° ESE 20:10:29 10° S
Cosmos 2061 Rocket 4.3 20:07:22 46° WNW 20:07:53 47° W 20:13:59 10° SSW
Meteor 1-4 Rocket 4.5 20:08:26 20° SSW 20:08:26 20° SSW 20:11:06 10° SSE
Terra 3.1 20:08:02 26° NNE 20:09:43 32° NE 20:14:02 10° ESE
GP-B 3.0 20:11:59 74° W 20:12:22 88° SSW 20:16:52 10° E
Cosmos 1300 4.2 20:09:30 10° E 20:12:47 27° NE 20:12:47 27° NE
Cosmos 1459 Rocket 4.2 20:13:20 46° WNW 20:13:27 46° W 20:19:17 10° SSW
Cosmos 1464 Rocket 4.3 20:13:08 43° W 20:13:59 46° WSW 20:19:54 10° S
Helios 1A 4.4 20:17:17 26° NNE 20:18:12 28° NE 20:21:50 10° ESE
Cosmos 1934 Rocket 4.5 20:20:36 38° W 20:20:36 38° W 20:24:47 10° SW
ALOS 2 3.8 20:19:08 31° NNE 20:19:28 31° NE 20:23:25 10° E
Helios 1B rocket 3.9 20:16:15 10° S 20:18:54 25° SW 20:18:54 25° SW
ERS-2 4.0 20:21:34 22° NE 20:22:12 23° ENE 20:25:15 10° ESE
Cosmos 2184 Rocket 4.2 20:16:51 10° NE 20:22:42 45° NNW 20:23:00 45° NNW
USA 186 3.9 20:24:36 20° ENE 20:25:34 23° E 20:28:05 10° SSE
ARIANE 5 R/B 3.9 20:21:06 10° ESE 20:25:49 34° S 20:28:54 19° WSW
H-2A R/B 3.4 20:23:26 16° NNE 20:26:52 33° E 20:31:21 10° SE
Resurs 01 Rocket 3.3 20:23:59 14° NNE 20:27:11 30° E 20:31:08 10° SSE
CZ-4B R/B 4.5 20:23:45 10° SSE 20:28:07 31° SW 20:28:52 29° WSW
CZ-2D R/B 3.4 20:25:00 10° SE 20:30:04 36° SSW 20:32:48 23° WSW
Okean O Rocket 3.5 20:26:52 10° E 20:30:45 30° SSE 20:34:37 10° SSW
Cosmos 2341 Rocket 4.2 20:24:43 10° NE 20:30:47 46° NNW 20:31:01 46° NW
MOS 1 Rocket 4.2 20:27:00 10° SSE 20:31:06 34° SW 20:31:12 34° SW
Cosmos 1151 Rocket 4.2 20:27:29 10° ENE 20:30:48 31° NNE 20:30:48 31° NNE
Cosmos 2016 Rocket 4.2 20:32:26 45° WNW 20:32:41 46° W 20:38:31 10° SSW
Cosmos 1605 Rocket 4.2 20:33:11 46° WNW 20:33:11 46° WNW 20:39:06 10° SW
Cosmos 1470 4.5 20:29:58 10° SE 20:33:24 28° ENE 20:34:47 23° NE
Mayak 0.0 20:30:44 10° S 20:34:07 30° SW 20:34:07 30° SW
Cosmos 1455 3.7 20:31:17 10° E 20:34:06 27° NE 20:34:06 27° NE
Cosmos 1953 4.0 20:32:31 10° SE 20:36:05 29° ENE 20:37:31 23° NE
SL-8 Rocket 4.2 20:30:43 10° NE 20:36:39 46° NNW 20:36:39 46° NNW
Cosmos 389 Rocket 4.5 20:36:49 20° SSW 20:37:01 20° SSW 20:39:43 10° SSE
Cosmos 1726 3.7 20:35:00 10° ESE 20:38:06 26° ENE 20:38:16 26° NE
H-2A R/B 4.2 20:35:08 10° ESE 20:38:57 29° S 20:41:16 19° SW
Cosmos-2242 4.2 20:35:12 10° ESE 20:39:00 31° NE 20:39:38 30° NE
Cosmos 1238 Rocket 4.2 20:38:29 39° WSW 20:39:14 41° SW 20:43:52 10° SSE
Cosmos 2034 Rocket 4.4 20:44:25 42° WNW 20:45:29 46° WSW 20:51:26 10° S
SPOT 5 4.1 20:44:14 23° NE 20:45:47 29° ENE 20:49:37 10° SE
CZ-2C R/B 4.2 20:47:50 23° NNE 20:49:58 33° ENE 20:54:27 10° SE
Iridium 4 Rocket 4.1 20:46:53 10° SW 20:52:30 66° SSE 20:58:21 10° ENE
Resurs 1-4 Rocket 3.3 20:48:37 10° SE 20:53:27 35° SSW 20:55:56 23° WSW
USA 32 4.4 20:49:03 10° ESE 20:54:10 51° NE 20:55:07 45° N
CZ-4B R/B 4.1 20:56:47 11° ENE 20:56:47 11° ENE 20:56:56 10° ENE
Cosmos 1825 3.8 20:54:47 25° SW 20:55:33 27° SSW 20:58:47 10° SE
CZ-4 R/B 3.4 20:53:44 10° ENE 20:57:27 30° SE 21:01:09 10° S
SL-16 R/B 3.1 20:58:45 37° N 20:59:13 37° N 21:05:01 10° ENE
CZ-2C R/B 4.0 20:55:22 10° E 20:59:51 33° SSE 21:04:11 10° SW
Cosmos 1408 4.2 21:00:21 26° SW 21:00:59 27° SSW 21:04:11 10° SE
Cosmos 2154 Rocket 4.2 20:55:10 10° NE 21:01:08 46° NNW 21:01:21 46° NNW
Sich 1 4.4 21:00:10 26° SW 21:01:28 31° SSW 21:05:16 10° SE
Cosmos 1626 3.8 21:03:16 24° SW 21:03:16 24° SW 21:05:32 10° S
Cosmos 2366 rocket 4.2 20:57:44 10° NE 21:03:03 45° NNW 21:03:03 45° NNW
ADEOS Rocket 3.8 20:58:27 10° S 21:04:48 43° W 21:06:22 38° WNW
Cosmos 1821 Rocket 4.4 20:58:59 10° NNE 21:06:16 42° WNW 21:11:04 10° WSW
SL-24 R/B 4.2 21:01:01 10° S 21:05:55 72° W 21:06:26 65° NW
ASTEX 1 3.7 21:03:19 20° NNE 21:06:45 66° ESE 21:11:44 10° SSW
Cosmos 2173 Rocket 4.2 21:08:20 46° WNW 21:08:29 46° WNW 21:14:26 10° SW
Cosmos 1892 4.2 21:12:47 27° SW 21:13:12 28° SSW 21:16:30 10° SSE
Cosmos 1633 Rocket 4.5 21:12:22 25° SW 21:13:57 32° SSW 21:17:51 10° SE
Cosmos 2151 4.2 21:13:52 31° SW 21:14:19 31° SW 21:18:10 10° SSE
Meteor 1-24 Rocket 4.4 21:14:46 33° WSW 21:14:46 33° WSW 21:19:17 10° SSW
Cosmos 2058 4.2 21:15:42 30° SW 21:15:56 31° SW 21:19:40 10° SSE
Cosmos 2218 Rocket 4.2 21:10:24 10° NE 21:16:21 46° NNW 21:16:21 46° NNW
SL-08 R/B 4.4 21:17:49 31° NNE 21:17:49 31° NNE 21:21:29 10° ENE
Cosmos 2233 Rocket 4.2 21:18:06 45° WNW 21:18:35 46° W 21:24:24 10° SSW
YAOGAN 1 4.5 21:16:46 10° ENE 21:20:38 30° SE 21:24:31 10° S
Cosmos 1437 Rocket 4.5 21:21:24 23° SW 21:21:53 24° SW 21:25:07 10° SSE
Meteor 2-5 Rocket 4.5 21:22:56 35° W 21:22:56 35° W 21:27:40 10° SSW
CZ-2C R/B 3.4 21:19:15 10° SSW 21:23:43 35° W 21:23:43 35° W
Cosmos 2228 Rocket 4.2 21:20:07 10° E 21:23:34 32° NE 21:23:34 32° NE
ADEOS II 3.4 21:19:41 10° SE 21:24:32 35° SSW 21:28:19 15° WSW
Cosmos 1634 Rocket 4.4 21:23:20 40° WNW 21:24:38 46° WSW 21:30:33 10° S
H-2A R/B 3.4 21:27:21 29° NE 21:27:21 29° NE 21:30:50 10° E
Cosmos 1725 Rocket 4.2 21:31:56 45° WNW 21:32:18 46° WNW 21:38:11 10° SW
Cosmos 1745 Rocket 4.3 21:27:03 10° E 21:32:52 45° NNE 21:33:45 43° N
IDEFIX/ARIANE 42P 4.1 21:28:14 10° ESE 21:33:01 35° S 21:37:48 10° WSW
Cosmos 1802 Rocket 4.2 21:36:48 45° WNW 21:36:53 45° WNW 21:42:43 10° SW
Cosmos 2074 Rocket 4.2 21:31:18 10° ENE 21:37:17 46° N 21:37:46 45° NNW
Cosmos 405 Rocket 4.4 21:36:00 10° ESE 21:39:22 25° ENE 21:39:50 24° ENE
Cosmos 2221 3.7 21:37:05 10° ESE 21:40:56 32° NE 21:41:03 32° NE
ERS-1 Rocket 4.3 21:38:23 21° NE 21:41:00 33° E 21:45:34 10° SSE
Meteor 1-4 Rocket 4.5 21:42:39 20° SW 21:42:39 20° SW 21:45:19 10° S
ALOS 4.0 21:40:27 10° E 21:44:44 33° SSE 21:49:01 10° SSW
Cosmos 2100 Rocket 4.2 21:45:15 46° NW 21:45:33 46° WNW 21:51:36 10° SW
Cosmos 1709 Rocket 4.2 21:40:01 10° E 21:45:47 45° NNE 21:46:23 44° N
Cosmos 2266 Rocket 4.5 21:40:46 10° ESE 21:46:35 45° NE 21:48:02 39° NNE
Cosmos 1300 4.2 21:44:28 10° SE 21:47:46 27° ENE 21:47:46 27° ENE
Terra 3.1 21:46:55 26° NE 21:48:36 32° E 21:52:55 10° SE
GP-B 3.0 21:49:26 74° WNW 21:49:50 88° SSW 21:54:19 10° ESE
Cosmos 2061 Rocket 4.3 21:52:19 46° NW 21:52:50 47° WNW 21:58:56 10° SW
Helios 1A 4.4 21:53:55 26° NE 21:54:50 28° E 21:58:28 10° SE
Helios 1B rocket 3.9 21:52:35 10° SSW 21:55:14 25° WSW 21:55:14 25° WSW
ALOS 2 3.8 21:56:32 31° NE 21:56:52 31° ENE 22:00:49 10° ESE
ERS-2 4.0 21:56:14 22° ENE 21:56:52 23° E 21:59:54 10° SE
USA 186 3.9 21:56:05 20° E 21:57:04 23° ESE 21:59:33 10° S
Cosmos 1459 Rocket 4.2 21:57:51 46° NW 21:57:58 46° NW 22:03:47 10° SW
Cosmos 1464 Rocket 4.3 21:57:49 43° WNW 21:58:40 46° W 22:04:34 10° SSW
Resurs 01 Rocket 3.3 22:01:33 14° NE 22:04:45 30° ESE 22:08:43 10° S
ARIANE 5 R/B 3.9 22:01:25 10° SE 22:06:10 34° SSW 22:09:14 19° W
Cosmos 2184 Rocket 4.2 22:01:37 10° ENE 22:07:28 45° N 22:07:46 45° N
H-2A R/B 3.4 22:04:04 16° NE 22:07:29 33° ESE 22:11:59 10° S
CZ-4B R/B 4.5 22:03:42 10° S 22:08:03 31° WSW 22:08:48 29° W
Okean O Rocket 3.5 22:04:19 10° ESE 22:08:12 30° S 22:12:05 10° WSW
Cosmos 1151 Rocket 4.2 22:04:19 10° ESE 22:07:38 31° NE 22:07:38 31° NE
Cosmos 1470 4.5 22:05:20 10° SSE 22:08:46 28° E 22:10:09 23° ENE
Cosmos 1455 3.7 22:06:14 10° ESE 22:09:02 27° ENE 22:09:02 27° ENE
MOS 1 Rocket 4.2 22:06:19 10° S 22:10:24 34° WSW 22:10:31 34° W
Cosmos 389 Rocket 4.5 22:10:44 20° SW 22:10:56 20° SW 22:13:37 10° S
Mayak 0.0 22:07:20 10° SSW 22:10:43 30° WSW 22:10:43 30° WSW
CZ-2D R/B 3.4 22:06:19 10° SSE 22:11:23 36° SW 22:14:08 23° W
Cosmos 1953 4.0 22:08:13 10° SSE 22:11:46 29° E 22:13:13 23° ENE
Cosmos 1726 3.7 22:09:32 10° SE 22:12:38 26° E 22:12:49 26° ENE
H-2A R/B 4.2 22:11:43 10° SE 22:15:32 29° SSW 22:17:51 19° WSW
Cosmos 2341 Rocket 4.2 22:09:36 10° ENE 22:15:40 46° N 22:15:54 46° N
Cosmos-2242 4.2 22:12:03 10° SE 22:15:50 31° ENE 22:16:29 30° ENE
Cosmos 2016 Rocket 4.2 22:17:04 45° NW 22:17:18 46° NW 22:23:07 10° SW
Cosmos 1605 Rocket 4.2 22:17:51 46° NW 22:17:51 46° NW 22:23:44 10° WSW
Cosmos 1238 Rocket 4.2 22:17:29 39° W 22:18:13 41° W 22:22:51 10° SSW
SL-8 Rocket 4.2 22:15:21 10° ENE 22:21:17 46° N 22:21:17 46° N
SPOT 5 4.1 22:23:28 23° ENE 22:25:01 29° E 22:28:51 10° SSE
ARGOS 4.5 22:21:22 14° NE 22:25:33 35° ESE 22:30:29 10° S
CZ-4B R/B 4.1 22:30:10 11° E 22:30:10 11° E 22:30:18 10° E
Cosmos 2034 Rocket 4.4 22:29:09 42° NW 22:30:13 46° W 22:36:11 10° SSW
Cosmos 1825 3.8 22:29:37 25° WSW 22:30:22 27° SW 22:33:37 10° SSE
CZ-2C R/B 4.2 22:28:53 23° NE 22:31:02 33° E 22:35:31 10° SSE
Iridium 4 Rocket 4.1 22:26:40 10° WSW 22:32:16 66° S 22:38:08 10° E
CZ-4 R/B 3.4 22:29:46 10° E 22:33:30 30° SSE 22:37:11 10° SSW
Resurs 1-4 Rocket 3.3 22:29:41 10° SSE 22:34:32 35° SW 22:37:01 23° W
USA 32 4.4 22:29:34 10° SE 22:34:40 51° ENE 22:35:38 45° NNE
Cosmos 1408 4.2 22:34:44 26° WSW 22:35:21 27° SW 22:38:33 10° SSE
Cosmos 1626 3.9 22:37:51 24° WSW 22:37:51 24° WSW 22:40:07 10° SSW
Sich 1 4.4 22:37:08 26° WSW 22:38:25 31° SW 22:42:13 10° SSE
CZ-2C R/B 4.0 22:34:45 10° ESE 22:39:14 33° S 22:43:34 10° WSW
SL-16 R/B 3.1 22:43:51 37° NNE 22:44:18 37° NE 22:50:07 10° E
Cosmos 2154 Rocket 4.2 22:39:57 10° E 22:45:54 46° N 22:46:08 46° N
ASTEX 1 3.7 22:42:49 20° NE 22:46:15 66° SE 22:51:15 10° SW
Cosmos 1892 4.2 22:47:48 27° WSW 22:48:12 28° SW 22:51:30 10° S
Cosmos 2366 rocket 4.2 22:42:24 10° ENE 22:47:44 45° N 22:47:44 45° N
SL-24 R/B 4.2 22:44:26 10° SSW 22:49:20 72° WNW 22:49:51 65° NNW
Cosmos 1821 Rocket 4.4 22:43:38 10° NE 22:50:58 41° NW 22:55:43 10° W
Cosmos 2151 4.2 22:50:26 31° W 22:50:54 31° WSW 22:54:45 10° S
Cosmos 1633 Rocket 4.5 22:49:28 25° W 22:51:02 32° SW 22:54:56 10° SSE
ADEOS Rocket 3.8 22:45:24 10° SW 22:51:45 43° WNW 22:53:20 38° NW
Cosmos 2058 4.2 22:51:54 30° WSW 22:52:08 31° WSW 22:55:52 10° S
Cosmos 2173 Rocket 4.2 22:52:56 46° NW 22:53:05 46° NW 22:59:02 10° WSW
SL-08 R/B 4.4 22:56:48 31° NE 22:56:48 31° NE 23:00:28 10° E
Meteor 1-24 Rocket 4.4 22:56:57 33° WNW 22:56:57 33° WNW 23:01:27 10° SW
Cosmos 1437 Rocket 4.5 22:56:48 23° WSW 22:57:18 24° WSW 23:00:31 10° S
YAOGAN 1 4.5 22:53:56 10° E 22:57:48 30° SSE 23:01:41 10° SW
Cosmos 2218 Rocket 4.2 22:55:11 10° ENE 23:01:08 46° N 23:01:08 46° N
Cosmos 2228 Rocket 4.2 22:57:36 10° ESE 23:01:04 32° ENE 23:01:04 32° ENE
Cosmos 2233 Rocket 4.2 23:02:41 45° NW 23:03:10 46° NW 23:08:59 10° SW
H-2A R/B 3.4 23:04:28 29° ENE 23:04:28 29° ENE 23:07:57 10° ESE
Meteor 2-5 Rocket 4.5 23:05:25 35° WNW 23:05:25 35° WNW 23:10:08 10° SW
ADEOS II 3.4 23:00:38 10° SSE 23:05:28 35° SW 23:09:16 15° W
CZ-2C R/B 3.4 23:00:47 10° SW 23:05:14 35° WNW 23:05:14 35° WNW
Cosmos 1634 Rocket 4.4 23:08:00 40° NW 23:09:18 46° W 23:15:13 10° SSW
IDEFIX/ARIANE 42P 4.1 23:09:03 10° SE 23:13:49 35° SSW 23:18:37 10° W
Cosmos 405 Rocket 4.5 23:11:10 10° SSE 23:14:31 25° E 23:15:00 24° E
Meteor 1-4 Rocket 4.5 23:16:53 20° WSW 23:16:53 20° WSW 23:19:33 10° SSW
Cosmos 1725 Rocket 4.2 23:16:36 45° NW 23:16:59 46° NW 23:22:52 10° WSW
Cosmos 1745 Rocket 4.3 23:11:42 10° ESE 23:17:32 45° NE 23:18:25 43° NNE
Cosmos 2221 3.7 23:13:56 10° SE 23:17:47 32° ENE 23:17:55 32° ENE
ERS-1 Rocket 4.3 23:18:23 21° ENE 23:21:00 33° ESE 23:25:34 10° S
Cosmos 1802 Rocket 4.2 23:21:37 45° NW 23:21:42 45° NW 23:27:32 10° WSW
Cosmos 2074 Rocket 4.2 23:15:59 10° E 23:21:58 46° NNE 23:22:27 45° NNE
Cosmos 1300 4.2 23:19:26 10° SSE 23:22:44 27° E 23:22:44 27° E
ALOS 4.0 23:18:58 10° ESE 23:23:15 33° S 23:27:31 10° WSW
GP-B 3.0 23:26:53 74° NW 23:27:17 88° WSW 23:31:46 10° SE
Terra 3.1 23:25:48 26° ENE 23:27:28 32° ESE 23:31:48 10° SSE
USA 186 3.9 23:27:34 20° ESE 23:28:32 23° SE 23:31:02 10° SSW
Cosmos 2100 Rocket 4.2 23:29:58 46° NNW 23:30:16 46° NNW 23:36:19 10° WSW
Cosmos 1709 Rocket 4.2 23:24:40 10° ESE 23:30:26 45° NE 23:31:02 44° NNE
Cosmos 2266 Rocket 4.5 23:25:20 10° SE 23:31:09 45° ENE 23:32:36 39° NE
Helios 1A 4.4 23:30:33 26° E 23:31:28 28° ESE 23:35:06 10° SSE
ERS-2 4.0 23:30:54 22° E 23:31:32 23° ESE 23:34:35 10° SSE
Helios 1B rocket 3.9 23:28:56 10° SW 23:31:35 25° W 23:31:35 25° W
ALOS 2 3.8 23:33:55 31° ENE 23:34:15 31° E 23:38:12 10° SSE
Cosmos 2061 Rocket 4.3 23:37:17 46° NNW 23:37:47 47° NW 23:43:53 10° WSW
Resurs 01 Rocket 3.3 23:39:08 14° ENE 23:42:19 30° SE 23:46:16 10° SSW
Cosmos 1459 Rocket 4.2 23:42:22 46° NNW 23:42:28 46° NNW 23:48:18 10° W
Cosmos 1464 Rocket 4.3 23:42:30 43° NW 23:43:21 46° WNW 23:49:16 10° SW
Cosmos 1470 4.5 23:40:41 10° S 23:44:07 28° SE 23:45:31 23° E
Cosmos 1455 3.7 23:41:10 10° SE 23:43:58 27° E 23:43:58 27° E
Cosmos 389 Rocket 4.5 23:44:39 20° WSW 23:44:50 20° WSW 23:47:32 10° SSW
Cosmos 1151 Rocket 4.2 23:41:10 10° SE 23:44:29 31° E 23:44:29 31° E
Okean O Rocket 3.5 23:41:47 10° SE 23:45:39 30° SSW 23:49:32 10° W
ARIANE 5 R/B 3.9 23:41:46 10° S 23:46:30 34° SW 23:49:35 19° WNW
Cosmos 1726 3.7 23:44:04 10° SSE 23:47:10 26° ESE 23:47:21 26° E
Cosmos 1953 4.0 23:43:55 10° S 23:47:28 29° SE 23:48:55 23° E
Mayak 0.0 23:43:56 10° SW 23:47:19 30° W 23:47:19 30° W
CZ-4B R/B 4.5 23:43:38 10° SSW 23:47:59 31° W 23:48:45 29° WNW
H-2A R/B 3.4 23:44:41 16° ENE 23:48:07 33° SE 23:52:36 10° SSW
MOS 1 Rocket 4.2 23:45:37 10° SW 23:49:43 34° W 23:49:50 34° WNW
H-2A R/B 4.2 23:48:18 10° S 23:52:07 29° SW 23:54:26 19° W
Cosmos 2184 Rocket 4.2 23:46:23 10° ESE 23:52:14 45° NE 23:52:32 45° NNE
Cosmos-2242 4.2 23:48:53 10° SSE 23:52:41 31° ESE 23:53:20 30° E
CZ-2D R/B 3.4 23:47:38 10° S 23:52:43 36° WSW 23:55:28 23° WNW
